Regional Weather Roundup
Issued by NWS Charleston, WV

Home | Current Version | Previous Version | Text Only | Print | Product List | Glossary On
Versions: 1 2 3 4 5 6 7 8 9 10 11 12 13 14 15 16 17 18 19 20 21 22 23 24 25 26 27 28 29 30 31 32 33 34 35 36 37 38 39 40 41 42 43 44 45 46 47 48 49 50
000
ASUS41 KRLX 290610
RWRRLX
West Virginia Regional Weather Roundup
National Weather Service Charleston WV
100 AM EST SAT NOV 29 2014

Note: "fair" indicates few or no clouds below 12,000 feet with no
significant weather and/or obstructions to visibility.

WVZ003-290700-
Northern Panhandle of West Virginia

CITY           SKY/WX    TMP DP  RH WIND       PRES   REMARKS
WHEELING       CLOUDY    28  19  69 SE6       30.15S
$$

WVZ009-290700-
Northwest West Virginia

CITY           SKY/WX    TMP DP  RH WIND       PRES   REMARKS
PARKERSBURG    CLOUDY    30  19  63 SE5       30.18F
$$

WVZ006-290700-
Western West Virginia

CITY           SKY/WX    TMP DP  RH WIND       PRES   REMARKS
HUNTINGTON     MOCLDY    29  20  69 E6        30.14F
$$

WVZ015-290700-
West Central West Virginia

CITY           SKY/WX    TMP DP  RH WIND       PRES   REMARKS
CHARLESTON     MOCLDY    26  23  88 CALM      30.15F
$$

WVZ022-031-290700-
North Central West Virginia

CITY           SKY/WX    TMP DP  RH WIND       PRES   REMARKS
CLARKSBURG     CLOUDY    28  19  69 CALM      30.16F
MORGANTOWN     CLOUDY    29  17  61 S3        30.17F
$$

WVZ025-035-042-045-290700-
Southern West Virginia

CITY           SKY/WX    TMP DP  RH WIND       PRES   REMARKS
BECKLEY        PTCLDY    28  16  60 SE7       30.12F
LOGAN            N/A     34  18  51 S8        30.13F
BLUEFIELD      PTCLDY    26  16  65 CALM      30.13F
LEWISBURG      PTCLDY    19  16  88 CALM      30.17F
$$

WVZ047-290700-
Northern Mountains of West Virginia

CITY           SKY/WX    TMP DP  RH WIND       PRES   REMARKS
ELKINS         CLOUDY    19  17  92 CALM      30.16F
$$

WVZ052-290700-
Eastern Panhandle of West Virginia

CITY           SKY/WX    TMP DP  RH WIND       PRES   REMARKS
MARTINSBURG    CLOUDY    28  20  71 CALM      30.26F
PETERSBURG     CLOUDY    25  18  77 CALM      30.24S
$$


USA.gov is the U.S. government's official web portal to all federal, state and local government web resources and services.